Regional Weather Roundup
Issued by NWS

Home | Current Version | Previous Version | Graphics & Text | Print | Product List | Glossary On
Versions: 1 2 3 4 5 6 7 8 9 10 11 12 13 14 15 16 17 18 19 20 21 22 23 24 25 26 27 28 29 30 31 32 33 34 35 36 37 38 39 40 41 42 43 44 45 46 47 48 49 50
000
ASUS45 KBOI 051210
RWRID

IDAHO REGIONAL WEATHER ROUNDUP
NATIONAL WEATHER SERVICE BOISE ID
600 AM MDT SUN JUL 05 2015

NOTE: "FAIR" INDICATES FEW OR NO CLOUDS BELOW 12000 FEET
WITH NO SIGNIFICANT WEATHER AND/OR OBSTRUCTIONS TO VISIBILITY

IDZ012-014-051300-
SOUTHWEST IDAHO


CITY           SKY/WX    TMP DP  RH WIND       PRES   REMARKS
BOISE          CLOUDY    75  47  36 SE3       29.84R
CALDWELL       CLOUDY    77  48  36 S3        29.83R
MOUNTAIN HOME  CLOUDY    77  53  42 NE2       29.85R
$$

IDZ016-017-051300-
SOUTHCENTRAL IDAHO


CITY           SKY/WX    TMP DP  RH WIND       PRES   REMARKS
BURLEY         CLOUDY    75  51  43 S16       29.93R
JEROME         CLOUDY    73  51  46 S8        29.94R
TWIN FALLS     CLOUDY    76  50  40 S10       29.92R
$$

IDZ019>023-051300-
SOUTHEAST IDAHO


CITY           SKY/WX    TMP DP  RH WIND       PRES   REMARKS
IDAHO FALLS    CLOUDY    72  50  45 S16       29.94R
POCATELLO      CLEAR     73  50  44 SW12      29.96R
REXBURG        MOCLDY    70  50  49 SW16G22   29.93R
$$

IDZ006-010-011-018-031-032-051300-
CENTRAL IDAHO MOUNTAINS


CITY           SKY/WX    TMP DP  RH WIND       PRES   REMARKS
MCCALL         PTCLDY    56  44  64 CALM      29.96R
HAILEY         CLOUDY    63  43  48 CALM      30.02R
STANLEY          N/A     51  38  60 SE5       30.09S
SALMON         CLOUDY    64  48  55 CALM      29.87R
CHALLIS        PTCLDY    66  36  32 CALM      29.96R
$$

IDZ002-004-006-007-026-051300-
NORTHERN IDAHO


CITY           SKY/WX    TMP DP  RH WIND       PRES   REMARKS
LEWISTON       PTCLDY    70  44  39 S3        29.74R
LOWELL           N/A     62  55  77 NW3       29.81R
COEUR D`ALENE  PTCLDY    72  46  40 N17G23    29.82R
MULLAN PASS    PTCLDY    54  44  69 MISG      30.03R
$$


USA.gov is the U.S. government's official web portal to all federal, state and local government web resources and services.